EHI
0 0 0 0 0 0 0 0 0 0 0 0 0 0 0 0 0 0 0 0 0 0 0 0 0 0 0 0 0 0 0 0 0 0 0 0 0 0 0 0 0 0 0
0 0 0 0 0 0 0 0 0 0 0 0 0 0 0 0 0 0 0 0 0 0 0 0 0 0 0 0 0 0 0 0 0 0 0 0 0 0 0 0 0 0 0
0 0 0 0 0 0 0 0 0 0 0 0 0 0 0 0 0 0 0 0 0 0 0 0 0 0 0 0 0 0 0 0 0 0 0 0 0 0 0 0 0 0 0
0 0 0 0 0 0 0 0 0 0 0 0 0 0 0 0 0 0 0 0 0 0 0 0 0 0 0 0 0 0 0 0 0 0 0 0 0 0 0 0 0 0 0
0 0 0 0 0 0 0 0 0 0 0 0 0 0 0 0 0 0 0 0 0 0 0 0 0 0 0 0 0 0 0 0 0 0 0 0 0 0 0 0 0 0 0
0 0 0 0 0 0 0 0 0 0 0 0 0 0 0 0 0 0 0 0 0 0 0 0 0 0 0 0 0 0 0 0 0 0 0 0 0 0 0 0 0 0 0
0 0 0 0 0 0 0 0 0 0 0 0 0 0 0 0 0 0 0 0 0 0 0 0 0 0 0 0 0 0 0 0 0 0 0 0 0 0 0 0 0 0 0
0 0 0 0 0 0 0 0 0 0 0 0 0 0 0 0 0 0 0 0 0 0 0 0 0 0 0 0 0 0 0 0 0 0 0 0 0 0 0 0 0 0 0
0 0 0 0 0 0 0 0 0 0 0 0 0 0 0 0 0 0 0 0 0 0 0 0 0 0 0 0 0 0 0 0 0 0 0 0 0 0 0 0 0 0 0
0 0 0 0 0 0 0 0 0 0 0 0 0 0 0 0 0 0 0 0 0 0 0 0 0 0 0 0 0 0 0 0 0 0 0 0 0 0 0 0 0 0 0
0 0 0 0 0 0 0 0 0 0 0 0 0 0 0 0 0 0 0 0 0 0 0 0 0 0 0 0 0 0 0 0 0 0 0 0 0 0 0 0 0 0 0
0 0 0 0 0 0 0 0 0 0 0 0 0 0 0 0 0 0 0 0 0 0 0 0 0 0 0 0 0 0 0 0 0 0 0 0 0 0 0 0 0 0 0
0 0 0 0 0 0 0 0 0 0 0 0 0 0 0 0 0 0 0 0 0 0 0 0 0 0 0 0 0 0 0 0 0 0 0 0 0 0 0 0 0 0 0
0 0 0 0 0 0 0 0 0 0 0 0 0 0 0 0 0 0 0 0 0 0 0 0 0 0 0 0 0 0 0 0 0 0 0 0 0 0 0 0 0 0 0
0 0 0 0 0 0 0 0 0 0 0 0 0 0 0 0 0 0 0 0 0 0 0 0 0 0 0 0 0 0 0 0 0 0 0 0 0 0 0 0 0 0 0
0 0 0 0 0 0 0 0 0 0 0 0 0 0 0 0 0 0 0 0 0 0 0 0 0 0 0 0 0 0 0 0 0 0 0 0 0 0 0 0 0 0 0
0 0 0 0 0 0 0 0 0 0 0 0 0 0 0 0 0 0 0 0 0 0 0 0 0 0 0 0 0 0 0 0 0 0 0 0 0 0 0 0 0 0 0
0 0 0 0 0 0 0 0 0 0 0 0 0 0 0 0 0 0 0 0 0 0 0 0 0 0 0 0 0 0 0 0 0 0 0 0 0 0 0 0 0 0 0
0 0 0 0 0 0 0 0 0 0 0 0 0 0 0 0 0 0 0 0 0 0 0 0 0 0 0 0 0 0 0 0 0 0 0 0 0 0 0 0 0 0 0
0 0 0 0 0 0 0 0 0 0 0 0 0 0 0 0 0 0 0 0 0 0 0 0 0 0 0 0 0 0 0 0 0 0 0 0 0 0 0 0 0 0 0
0 0 0 0 0 0 0 0 0 0 0 0 0 0 0 0 0 0 0 0 0 0 0 0 0 0 0 0 0 0 0 0 0 0 0 0 0 0 0 0 0 0 0
0 0 0 0 0 0 0 0 0 0 0 0 0 0 0 0 0 0 0 0 0 0 0 0 0 0 0 0 0 0 0 0 0 0 0 0 0 0 0 0 0 0 0
0 0 0 0 0 0 0 0 0 0 0 0 0 0 0 0 0 0 0 0 0 0 0 0 0 0 0 0 0 0 0 0 0 0 0 0 0 0 0 0 0 0 0
0 0 0 0 0 0 0 0 0 0 0 0 0 0 0 0 0 0 0 0 0 0 0 0 0 0 0 0 0 0 0 0 0 0 0 0 0 0 0 0 0 0 0
0 0 0 0 0 0 0 0 0 0 0 0 0 0 0 0 0 0 0 0 0 0 0 0 0 0 0 0 0 0 0 0 0 0 0 0 0 0 0 0 0 0 0
0 0 0 0 0 0 0 0 0 0 0 0 0 0 0 0 0 0 0 0 0 0 0 0 0 0 0 0 0 0 0 0 0 0 0 0 0 0 0 0 0 0 0
Wind_Speed
3 4 4 4 4 4 4 4 5 5 6 6 5 5 5 5 4 3 3 3 3 3 2 2 3 3 2 3 3 3 4 4 4 3 2 2 2 2 3 3 4 7 8
2 3 4 3 4 4 5 5 5 6 6 6 6 6 5 6 5 5 4 3 3 3 3 2 3 2 2 3 3 4 4 5 4 4 3 2 3 4 3 4 4 5 5
1 2 3 4 4 5 5 5 5 5 6 6 6 6 6 6 6 6 6 5 3 3 3 2 3 3 2 2 3 3 4 4 4 3 3 3 2 3 3 3 3 3 4
1 1 2 3 4 4 4 4 5 5 5 5 5 6 6 6 7 8 7 6 4 3 2 2 2 2 2 2 2 2 3 3 3 3 3 2 3 3 3 3 2 2 3
0 1 2 3 4 4 4 4 5 5 6 5 5 5 6 5 7 9 8 7 6 4 3 3 3 3 3 2 1 1 1 2 2 3 3 3 3 3 4 3 3 3 2
1 1 1 1 2 3 4 4 4 4 4 4 4 4 5 5 10 12 10 7 6 4 3 3 2 2 4 4 2 1 1 1 2 3 3 4 4 4 3 4 4 4 2
0 1 1 1 2 2 4 4 4 4 4 4 4 4 4 5 9 12 15 8 6 4 4 3 3 3 4 4 4 2 1 2 3 3 3 3 4 5 5 5 5 4 3
1 0 1 1 1 1 2 3 3 3 4 4 4 3 3 4 8 11 15 8 5 4 4 4 3 4 5 6 4 2 1 1 2 2 2 2 2 3 4 5 5 4 3
2 1 1 1 1 1 2 3 2 2 3 3 3 3 3 2 5 9 12 6 4 4 4 4 4 4 8 9 4 2 2 1 1 2 3 3 4 5 5 4 5 5 3
2 1 1 0 1 2 2 3 3 3 3 3 3 3 3 2 2 6 9 4 4 4 3 3 5 5 8 8 4 3 2 2 1 2 2 3 3 3 4 4 5 5 3
2 0 1 2 3 3 3 3 4 3 3 4 5 4 2 1 1 1 4 3 4 5 3 2 2 6 7 7 5 2 2 3 1 1 1 2 2 2 2 2 3 4 4
1 1 3 4 4 3 3 4 4 4 4 5 4 3 2 2 2 2 2 3 4 3 3 2 2 5 7 7 4 3 5 4 1 0 1 1 2 2 2 2 2 2 3
3 4 5 5 5 5 5 5 4 4 3 3 3 3 2 1 3 4 4 5 5 2 2 4 5 6 6 4 3 4 4 2 1 0 1 1 1 2 2 1 1 2 3
4 5 5 5 5 4 4 4 3 3 3 3 3 3 3 2 1 1 1 2 3 3 3 4 6 6 4 4 4 3 2 1 1 1 1 1 2 2 2 2 2 2 2
5 4 5 5 4 3 3 4 4 4 4 4 3 3 3 2 1 1 0 1 1 2 4 3 3 3 3 3 3 2 2 2 1 1 2 2 2 2 2 2 2 2 2
5 5 3 3 3 3 3 4 8 9 9 11 10 7 5 6 6 5 4 4 4 4 3 3 4 4 3 3 3 3 2 2 2 2 2 3 3 3 3 2 3 3 3
5 5 4 3 3 3 3 4 4 6 10 11 12 12 12 10 9 8 7 5 6 4 3 5 5 5 4 4 3 3 3 3 3 3 3 3 3 3 3 3 3 3 3
6 6 5 4 4 4 4 4 4 4 4 4 9 14 15 14 13 11 7 3 4 5 5 6 6 5 4 4 4 3 3 3 2 3 3 3 3 4 4 4 4 4 4
5 4 4 5 5 5 4 4 4 5 4 4 4 5 11 11 10 8 7 5 6 6 6 6 6 6 5 5 4 4 4 4 4 3 3 4 4 4 4 4 4 7 5
5 8 7 5 5 5 5 5 5 5 4 4 4 3 0 2 3 4 6 7 7 7 7 6 6 6 5 5 5 4 4 4 5 5 4 4 4 4 5 5 5 5 5
5 6 9 6 5 5 6 6 6 6 6 6 6 7 7 1 3 4 4 5 7 7 7 7 6 6 6 5 5 5 6 5 5 5 5 5 5 5 4 5 5 5 5
5 5 5 5 5 6 6 6 6 6 7 8 7 8 12 7 5 5 4 4 4 4 4 4 5 5 5 5 6 6 6 6 6 6 6 6 6 6 5 5 5 5 5
5 5 5 5 5 8 7 7 7 7 8 8 8 8 8 8 8 8 8 7 7 6 6 5 4 4 4 4 4 5 6 7 6 7 7 6 6 6 6 7 8 7 7
5 5 5 5 5 5 6 6 7 7 8 8 8 8 9 9 9 10 10 9 9 8 8 7 6 8 9 7 5 4 4 5 6 6 9 8 8 7 7 7 7 8 7
4 4 4 5 5 5 5 6 6 6 7 7 7 7 8 8 9 9 9 9 11 10 12 10 8 9 11 11 9 8 9 9 8 6 6 7 8 8 8 8 7 7 8
3 3 3 3 4 4 4 5 5 6 6 6 6 6 7 7 7 8 8 8 10 10 11 10 12 14 15 11 11 13 12 12 12 11 7 6 7 8 8 7 9 8 9
Wind_Direction
4 357 353 347 339 335 348 351 344 340 342 342 344 348 354 352 347 338 329 327 319 306 297 287 281 257 235 225 219 211 207 201 214 224 196 185 180 179 187 198 168 171 185
18 349 337 338 347 353 357 360 352 347 346 346 352 0 4 1 351 347 346 343 320 310 305 297 288 283 256 234 223 214 208 204 197 211 205 192 195 189 192 197 186 178 171
51 337 338 351 360 356 359 360 347 349 350 350 2 4 6 6 1 359 351 339 325 310 304 299 297 302 276 252 233 222 212 208 193 194 203 191 192 183 181 191 176 156 164
137 347 356 352 359 357 360 352 347 353 350 355 4 5 7 6 7 1 350 339 335 333 334 337 333 330 308 293 265 245 219 205 193 192 197 188 185 176 168 171 174 164 161
111 49 29 360 359 357 349 350 359 353 350 359 2 5 3 5 14 1 345 343 341 345 357 8 13 16 11 345 319 314 283 215 196 194 195 186 182 170 180 172 170 151 147
179 126 93 2 356 347 340 351 353 336 338 357 357 3 1 7 0 1 356 340 334 340 349 351 351 16 16 6 332 292 273 229 213 205 202 192 194 186 173 168 160 156 172
160 123 115 38 0 344 344 347 336 335 354 350 346 353 356 0 359 356 352 336 327 343 353 350 359 20 14 358 337 309 280 268 243 219 207 202 183 182 175 175 172 168 171
117 251 174 166 285 321 325 321 320 340 342 332 331 337 339 0 4 357 348 334 329 346 358 360 11 23 14 360 336 336 347 330 270 217 199 200 174 161 171 174 164 144 115
159 256 243 175 193 292 304 303 311 319 312 311 318 322 323 349 10 3 355 326 332 347 2 13 21 26 9 3 353 352 3 356 47 98 125 135 137 146 148 140 148 150 154
158 213 270 166 209 264 287 298 296 287 284 292 295 294 302 316 19 7 359 333 341 342 346 27 47 27 5 4 356 356 3 355 49 105 115 134 144 149 157 161 164 163 150
109 70 299 271 245 234 243 270 282 285 288 284 276 261 244 241 176 10 360 350 338 330 335 1 28 13 2 355 351 355 340 331 337 111 128 137 141 148 157 158 170 171 165
131 220 254 258 259 255 230 244 259 269 278 277 275 277 245 198 182 201 280 308 316 317 327 350 3 351 344 340 342 334 331 334 326 124 118 126 136 146 151 153 171 182 170
212 227 239 247 241 233 233 242 250 253 259 275 282 284 276 219 189 207 240 280 302 306 311 320 312 312 321 314 302 306 314 303 298 151 147 149 146 139 129 124 114 117 106
243 235 235 242 244 237 222 224 237 250 262 276 288 291 289 275 227 175 236 273 291 300 305 299 295 289 285 287 288 280 263 256 221 201 181 162 137 125 137 141 135 129 114
275 258 246 242 235 238 239 231 233 233 224 230 244 260 282 286 218 169 168 343 355 343 324 301 279 269 260 255 251 242 231 222 218 199 178 168 164 163 172 165 151 148 148
311 310 303 294 269 242 244 255 239 234 239 233 231 233 249 244 215 216 225 245 274 305 315 288 281 270 261 258 255 250 237 226 216 203 198 188 181 180 177 170 164 166 166
320 315 312 308 305 294 278 267 274 261 244 245 245 242 239 246 240 235 239 252 270 273 259 260 264 262 253 248 246 239 235 226 212 204 202 198 188 183 177 178 180 182 184
331 332 334 320 311 302 294 287 279 278 276 261 244 238 240 242 241 239 234 238 263 235 232 245 253 256 249 241 239 237 237 230 215 212 208 204 195 188 189 190 189 190 187
338 342 338 327 316 306 299 293 289 286 280 275 274 245 234 238 240 238 208 216 242 248 244 240 240 243 243 238 234 230 225 222 217 211 212 209 201 195 199 198 193 195 190
339 346 342 326 323 329 329 325 321 317 313 310 307 308 264 167 213 217 208 222 236 245 248 250 246 240 236 234 232 227 226 223 217 215 212 210 207 200 202 202 194 188 191
345 346 349 348 349 353 346 344 348 350 350 346 341 343 350 293 254 255 237 225 232 240 246 247 247 243 235 227 227 228 228 228 222 215 211 209 206 205 203 199 198 193 186
349 355 355 355 357 360 354 354 355 356 356 356 352 355 357 357 351 344 335 324 304 280 270 265 257 247 236 228 222 222 228 230 228 221 215 210 205 204 202 201 199 195 189
357 360 358 0 3 0 360 0 1 1 1 360 359 0 2 1 357 354 351 348 344 339 337 330 312 303 291 266 242 229 229 232 228 221 216 212 208 205 202 204 204 200 199
359 1 1 2 4 3 360 1 2 3 2 1 2 2 0 358 356 356 354 353 351 347 345 340 334 330 328 324 306 280 266 262 248 232 221 217 213 208 203 204 205 204 202
356 359 1 3 2 360 357 357 359 360 358 359 360 359 355 353 353 353 354 354 351 347 345 344 341 337 329 325 328 327 314 292 275 266 241 222 218 212 206 206 204 204 203
345 354 357 357 355 352 350 348 350 352 350 352 351 349 347 346 346 346 347 346 345 342 341 338 337 338 334 330 328 324 318 312 299 277 262 244 226 219 210 208 206 205 204